RH
4 4 4 5 5 5 5 5 5 5 6 6 7 12 14 13 18 23 24 22 15 9 6 5 5 5 6 6 6 6 6 7 7 6 7 7 7 7 8 8 7 7 7 6 5 5 6 6 6 7 10 13 19 30 41 49 56 56 53 50 50 51 49 46 42 41 38 35 36 37 37 34 29 26 23 21 20 20 21 22 23 24 25 25 26 26 27 31
5 5 5 5 5 6 6 6 7 7 7 6 6 6 7 5 6 10 12 12 8 5 5 5 5 5 5 6 6 6 6 6 6 6 7 7 7 7 8 8 8 7 7 7 7 6 6 6 6 7 7 11 16 21 26 30 37 42 42 39 38 39 41 42 42 40 33 27 27 29 31 29 25 23 21 20 20 21 22 23 24 25 26 27 28 30 33 35
5 6 7 9 10 11 12 13 14 14 13 13 12 11 11 10 8 7 7 7 6 6 5 5 6 5 6 6 6 6 6 6 6 8 8 8 8 7 7 7 8 8 7 8 8 7 7 6 6 7 6 9 13 17 23 26 30 35 33 31 30 28 29 33 39 40 30 23 24 24 24 23 21 20 20 21 21 21 22 23 24 26 29 31 32 34 37 38
9 12 15 17 18 19 20 21 22 22 22 22 21 21 20 19 18 16 13 13 12 11 9 9 8 7 7 7 7 7 9 10 11 12 11 11 10 8 8 7 8 8 8 7 7 8 7 7 7 7 7 8 13 17 22 26 28 32 30 25 24 21 20 23 29 33 26 21 22 21 21 21 21 21 21 21 21 21 22 23 26 29 31 31 33 34 35 36
18 21 23 24 25 27 29 30 31 32 32 32 31 30 30 29 27 25 25 25 24 21 18 15 13 10 9 9 9 9 12 16 17 15 13 15 14 11 10 9 9 8 8 8 7 8 7 8 8 7 8 9 13 16 18 23 26 28 27 24 22 19 19 20 22 25 23 22 22 22 22 22 22 22 22 22 22 23 23 24 26 28 29 29 30 30 30 30
26 27 29 32 33 34 34 34 34 34 33 33 33 32 31 29 27 26 28 28 26 24 20 18 16 13 11 11 11 10 14 18 19 19 18 18 16 14 13 12 11 9 8 8 8 8 8 8 8 8 9 10 12 14 16 22 23 22 23 23 22 20 21 22 23 24 23 23 23 23 23 23 23 23 23 24 23 23 23 23 24 26 26 27 28 28 29 30
31 31 34 36 35 34 33 32 31 31 30 29 27 25 25 23 23 24 23 21 18 17 15 15 15 12 12 11 11 12 13 15 17 18 19 19 18 17 15 13 11 9 8 8 8 8 8 9 9 9 10 10 12 14 18 22 21 20 22 22 21 21 21 23 24 24 24 24 24 25 25 25 25 25 25 25 24 24 24 24 25 25 26 26 28 29 31 33
32 33 35 35 34 33 33 33 32 32 30 28 25 23 23 23 23 21 18 15 13 13 12 13 13 12 12 11 11 12 12 15 17 18 19 20 18 16 13 11 9 8 8 8 8 9 9 10 10 9 10 11 11 13 17 20 20 20 20 21 21 22 22 23 24 24 24 25 26 27 27 27 26 25 25 25 25 25 25 26 27 27 28 29 31 32 33 34
34 34 36 35 34 34 34 35 35 35 33 30 27 25 24 23 21 16 12 12 13 12 11 11 11 11 12 12 12 13 15 16 17 18 18 16 14 13 12 11 10 9 9 8 9 9 9 10 10 11 10 11 11 12 13 15 17 17 18 20 22 22 23 24 24 25 27 28 29 29 28 27 26 26 26 26 26 27 28 29 29 30 31 32 34 34 33 33
35 36 36 35 36 35 35 35 35 35 34 32 29 26 24 21 16 10 9 11 12 12 11 10 10 10 10 11 11 12 15 15 14 14 13 12 12 12 12 12 11 11 10 9 9 9 10 11 11 12 11 11 12 13 14 15 17 18 18 20 22 23 23 24 26 27 29 30 30 29 28 27 27 28 28 29 29 30 30 30 31 32 34 34 34 33 32 31
35 36 36 37 38 37 36 34 34 34 33 32 29 24 20 16 11 7 8 9 10 11 11 11 10 10 10 11 12 13 14 13 13 13 12 12 11 11 11 11 11 10 11 10 10 10 11 11 12 12 13 13 14 15 17 19 21 22 22 22 23 24 25 26 28 29 30 30 30 29 29 28 29 30 31 31 31 31 32 32 34 34 34 33 32 30 27 24
35 36 38 38 35 32 30 28 27 26 25 24 21 18 15 12 9 7 7 7 9 10 11 12 12 11 12 13 14 14 14 13 13 13 13 13 12 12 11 11 11 10 11 11 11 11 11 12 12 13 14 15 17 18 19 20 22 25 26 25 25 26 27 29 29 30 31 31 31 31 30 31 33 34 33 32 31 32 33 35 35 34 32 29 27 23 16 11
31 30 31 30 24 18 15 14 13 12 12 12 11 11 10 9 8 7 8 9 11 12 13 13 13 13 14 15 14 13 12 11 11 11 11 11 11 12 11 12 12 11 12 11 12 12 12 12 12 13 15 16 18 19 20 21 24 26 28 29 29 29 30 31 31 31 32 32 33 33 33 34 36 35 33 32 32 34 35 35 33 30 28 24 18 13 8 5
15 15 17 16 12 9 9 8 8 7 6 7 8 8 9 9 8 8 10 13 13 14 14 14 14 15 15 15 12 10 9 8 8 8 8 9 9 10 11 11 11 12 13 13 13 13 12 12 12 13 14 15 17 20 22 23 26 29 30 32 32 32 32 33 32 32 32 33 34 35 35 35 36 34 32 31 32 34 34 32 30 27 23 17 10 6 4 4
6 8 10 10 10 11 12 11 10 8 6 5 6 7 8 8 9 10 13 13 12 12 14 15 16 16 15 14 11 9 8 7 8 8 8 9 9 10 10 10 10 11 12 14 15 15 14 13 13 14 14 14 16 19 22 25 28 31 31 33 33 32 33 34 33 33 33 34 37 38 38 38 36 35 33 32 32 32 31 30 28 26 19 11 6 4 4 4
9 10 12 13 14 15 15 16 14 11 8 6 5 6 7 9 10 13 13 12 10 10 12 13 16 19 15 11 10 9 9 9 9 10 10 10 10 10 10 10 11 11 11 13 14 15 15 15 15 15 15 16 17 19 23 27 31 33 32 33 34 33 34 36 35 34 34 36 39 40 41 40 38 35 33 33 32 31 30 29 28 24 16 7 3 4 4 4
14 17 20 21 21 20 18 17 17 15 11 9 7 7 9 11 13 14 14 12 10 9 10 11 16 19 14 10 11 10 10 10 10 10 10 11 11 11 11 12 12 13 12 12 13 15 16 17 17 18 19 21 23 24 28 30 31 32 32 34 36 35 36 37 37 36 36 39 42 43 43 40 36 34 33 34 34 32 31 29 28 21 10 4 4 4 5 4
24 26 27 28 28 28 24 18 18 19 14 12 11 10 11 13 13 13 13 13 12 11 10 11 15 16 12 10 11 10 10 10 10 11 11 12 12 11 12 13 13 14 15 16 15 16 18 18 21 24 25 27 29 30 31 33 32 32 33 34 36 37 39 40 40 41 41 42 46 45 43 40 36 33 33 35 34 33 31 29 29 20 6 3 4 4 5 5
30 30 29 29 30 32 29 21 18 20 16 13 12 12 12 12 12 11 11 12 11 11 10 10 12 12 11 11 10 10 11 11 11 12 13 14 15 15 14 13 13 13 16 20 19 19 19 18 22 26 26 30 34 34 35 36 36 36 36 36 36 38 41 42 43 45 45 46 47 45 43 39 35 34 35 36 35 33 30 27 29 23 8 3 4 4 5 5
31 30 29 29 30 32 31 23 20 22 18 14 12 13 13 12 12 11 10 11 10 10 10 10 11 11 11 11 11 11 11 12 12 13 14 14 16 17 16 15 16 15 16 21 23 22 20 19 23 23 22 27 34 39 41 41 40 38 39 41 40 41 44 44 45 47 48 47 46 45 42 37 32 34 36 34 30 27 23 20 22 18 8 3 4 4 4 5
32 30 29 29 28 29 29 23 22 23 20 15 12 12 13 12 12 12 12 12 11 10 10 10 11 11 12 12 12 12 12 13 12 13 14 13 14 15 16 16 16 16 17 19 21 21 20 20 21 21 20 23 31 40 41 39 37 36 38 39 39 42 44 45 46 46 47 47 46 44 39 34 32 35 32 25 21 20 17 16 15 12 8 5 4 4 5 5
33 32 31 29 27 27 27 24 25 25 21 16 12 10 12 12 12 13 13 13 12 11 11 11 11 11 12 12 12 11 11 11 10 11 12 12 13 14 16 15 14 15 17 17 19 20 19 18 19 19 19 20 25 30 33 34 34 32 32 32 33 38 41 44 45 44 45 43 39 36 32 31 34 36 30 20 18 21 20 19 18 16 13 9 7 7 7 7
31 32 33 31 28 28 26 25 27 26 23 19 13 9 11 11 12 14 14 14 13 12 13 13 12 10 10 11 11 11 10 9 9 10 9 10 11 12 14 14 13 16 16 15 18 18 18 18 17 17 17 17 19 23 30 35 37 35 33 35 33 29 32 36 36 35 34 31 27 24 25 31 36 36 30 22 20 22 24 24 24 24 20 15 12 10 10 10
29 29 31 32 31 29 28 27 27 26 24 22 14 10 10 10 13 15 14 14 12 12 14 14 13 10 9 9 8 10 10 8 8 9 9 9 10 11 13 13 13 15 16 15 15 16 17 17 16 16 15 14 15 21 28 33 38 39 37 34 24 16 18 22 23 23 21 22 25 28 29 26 26 27 23 23 24 22 24 25 24 24 21 18 14 10 11 13
31 29 30 32 31 29 30 28 25 25 25 22 15 11 10 9 12 15 16 16 14 15 15 13 13 11 8 8 8 10 11 9 9 10 10 11 11 12 13 14 15 16 17 15 14 15 15 16 14 10 9 9 10 16 24 30 33 34 29 20 12 10 13 16 20 22 20 23 28 33 36 25 14 16 18 22 25 21 23 22 17 18 17 13 11 10 12 16
36 35 35 36 34 31 30 27 24 25 25 21 15 12 9 8 11 13 16 19 18 18 17 13 13 10 8 9 8 11 12 11 12 11 11 12 12 14 16 18 18 18 18 16 14 14 13 13 8 4 3 4 6 11 17 19 18 19 14 10 11 11 14 18 22 25 25 27 28 30 39 33 14 9 13 18 21 18 19 16 10 11 12 9 8 9 12 17
41 40 40 40 39 36 31 27 26 26 24 19 14 11 8 7 10 12 16 21 20 19 19 14 12 9 8 10 9 11 11 12 14 12 11 12 13 14 17 20 21 20 19 16 14 13 11 7 3 2 2 2 5 6 8 6 6 9 7 9 13 11 15 21 24 27 27 30 32 31 39 44 28 8 6 11 12 12 10 8 7 7 9 8 8 8 9 13
34 30 30 32 34 33 29 27 26 24 21 16 12 9 6 6 10 13 18 23 21 20 19 13 11 11 9 10 11 11 12 12 13 12 11 13 13 13 16 21 23 22 19 17 15 12 8 4 1 2 2 3 4 3 3 3 4 8 9 12 14 14 17 19 23 29 31 35 37 30 34 49 37 8 3 8 5 6 6 5 7 7 8 9 8 9 9 10
21 20 22 25 28 27 26 25 23 19 15 11 8 6 6 8 11 15 21 22 19 20 19 13 11 12 10 11 12 12 12 11 11 11 11 12 12 12 16 21 25 23 17 17 16 10 5 2 2 3 2 3 3 2 4 2 4 7 10 13 15 17 15 15 25 29 37 49 41 26 32 47 36 7 1 7 4 4 6 5 7 7 8 9 8 9 10 10
21 23 23 24 23 21 20 18 15 12 9 7 6 5 7 11 15 22 24 19 16 19 19 12 10 11 11 11 12 12 12 11 10 10 9 10 11 13 18 21 23 21 15 14 12 6 3 2 3 3 3 4 2 3 4 2 5 4 5 11 15 17 11 15 27 31 48 61 38 20 30 44 41 15 0 5 4 4 6 5 7 7 7 9 8 10 10 11
23 21 19 16 14 12 11 10 8 7 6 5 5 7 11 14 19 25 22 17 18 18 15 12 10 11 11 12 12 12 12 11 10 10 9 10 10 13 18 18 20 18 10 8 6 3 3 2 4 3 3 4 3 4 4 3 5 3 4 9 11 14 10 12 22 31 56 62 29 16 28 45 51 22 -0 5 5 5 6 5 7 7 8 8 8 9 9 10
17 12 10 9 8 7 7 7 6 6 5 5 7 10 14 16 17 18 16 18 22 15 10 11 12 12 11 11 11 11 12 11 11 10 9 10 9 10 11 12 18 17 9 7 4 2 3 2 3 3 3 4 3 5 5 4 5 4 5 7 10 15 11 17 29 31 42 41 20 20 30 41 42 14 -0 6 4 5 6 5 8 7 7 8 7 8 8 9
9 7 7 6 7 7 7 7 6 6 6 7 10 13 15 13 12 13 13 16 17 11 9 12 12 12 11 10 10 11 11 11 11 10 10 10 9 8 6 7 14 16 14 13 7 2 3 3 3 3 3 4 3 4 5 6 6 5 6 6 10 14 13 30 45 30 21 20 14 23 29 27 22 7 4 7 3 6 6 5 8 6 6 8 7 7 7 8
7 7 7 7 7 6 7 7 6 7 8 10 14 16 15 13 11 10 9 10 12 11 11 12 12 12 11 10 10 10 11 12 11 10 10 11 10 6 4 5 9 12 14 14 8 5 7 6 4 3 4 4 4 4 4 6 7 6 7 5 6 10 10 24 36 22 16 20 18 23 25 19 14 7 6 6 4 5 5 5 7 6 7 7 6 7 6 7
7 7 6 7 7 7 7 7 7 8 10 13 15 15 13 11 9 8 8 9 11 12 12 13 12 11 10 9 9 9 10 11 11 10 11 13 12 7 3 4 6 9 12 12 10 11 11 8 6 4 4 4 3 4 4 5 7 7 8 7 7 9 8 15 24 21 25 39 40 33 23 13 9 6 5 6 5 4 4 6 6 6 6 7 7 7 6 7
8 7 8 8 7 8 8 8 8 9 11 13 14 13 10 9 8 8 9 11 11 10 10 12 12 10 9 8 8 8 9 10 10 10 11 12 14 10 4 3 3 5 9 11 12 14 13 9 8 5 4 4 4 5 6 6 8 8 9 10 10 10 12 16 24 30 38 47 43 31 20 12 7 6 6 5 4 4 5 5 5 6 6 6 7 7 7 8
8 8 9 8 8 8 8 8 9 10 11 11 10 9 8 8 8 8 10 9 9 9 9 9 10 10 8 8 8 8 9 10 10 10 10 11 13 12 7 4 3 3 5 8 10 14 14 10 9 9 6 6 6 7 8 7 9 11 11 13 12 15 23 27 34 44 51 51 42 26 17 14 12 10 6 3 5 5 5 5 5 6 7 7 8 8 8 9
9 9 8 8 8 8 7 8 8 9 10 9 7 7 7 7 8 8 8 8 8 8 7 7 9 9 7 7 8 8 9 9 9 10 11 10 12 14 10 4 4 4 3 5 7 10 12 9 8 9 9 9 11 12 13 10 9 12 13 15 16 18 24 27 34 42 44 51 51 33 18 14 13 10 5 3 5 4 4 7 6 6 7 8 8 9 10 10
9 7 7 7 7 7 7 7 7 6 7 7 6 6 7 7 8 8 8 7 7 7 6 6 7 7 7 7 7 7 8 8 9 10 10 10 10 12 11 6 4 4 2 3 4 5 8 8 7 8 9 11 13 14 14 11 9 11 14 18 18 20 22 21 26 29 30 44 54 44 32 21 11 9 6 4 4 4 5 6 6 6 6 8 10 10 11 13
7 6 5 5 5 6 6 6 5 5 6 6 6 6 7 7 7 7 6 6 6 6 6 6 6 6 6 6 7 7 7 7 9 9 9 9 9 10 11 8 3 3 2 2 3 3 6 9 10 8 8 9 9 10 8 7 8 8 11 14 15 20 24 24 25 23 24 42 59 62 47 20 6 9 8 4 4 3 4 5 5 6 5 7 10 11 13 15
6 5 4 4 5 4 4 5 4 5 6 6 6 6 6 6 6 6 6 5 6 6 5 5 6 6 6 6 6 6 6 7 8 9 9 9 9 10 11 8 4 3 3 1 2 3 4 6 7 5 4 4 5 6 6 7 8 7 9 11 12 18 26 33 39 32 23 32 45 54 42 15 6 11 6 3 5 3 4 6 5 6 6 6 9 11 14 16
4 4 3 4 4 4 4 5 5 6 6 6 6 6 5 5 5 5 5 5 5 5 5 5 5 6 6 6 6 6 6 7 8 8 8 9 10 10 9 9 8 6 4 2 2 2 3 5 5 4 4 5 5 6 5 5 5 5 8 8 9 16 23 32 42 35 28 30 31 42 47 23 6 8 5 4 5 4 6 6 6 7 7 7 8 11 15 16
3 4 4 4 4 4 5 5 5 6 6 5 5 5 5 5 4 5 5 5 5 5 5 5 5 6 6 5 6 6 6 8 8 8 8 9 9 10 10 9 9 9 8 6 3 4 8 11 10 8 6 4 4 3 4 5 5 7 9 9 10 14 16 24 33 31 33 36 32 46 55 26 3 6 6 4 5 5 7 6 7 8 7 8 10 12 16 16
3 4 4 4 5 5 5 5 5 5 5 5 5 4 4 4 4 4 4 4 5 5 5 5 5 6 6 6 6 6 7 8 8 8 9 9 9 10 10 9 10 10 10 9 7 8 12 13 12 12 10 8 8 7 6 7 10 11 9 9 9 8 11 21 32 40 45 39 32 44 45 17 3 7 5 4 7 7 7 8 8 9 8 10 12 14 16 15
4 4 4 5 5 5 5 5 5 5 4 4 4 4 5 4 4 4 4 4 4 5 5 5 5 6 6 6 6 6 7 7 8 8 8 9 9 10 10 11 11 11 12 13 12 12 13 12 11 12 12 13 13 11 8 6 9 9 7 7 7 7 10 13 23 41 47 37 32 37 29 11 5 8 7 8 10 7 8 9 8 9 10 11 12 13 14 13
4 4 4 4 4 5 5 5 5 5 5 5 5 5 5 4 5 5 5 5 4 5 5 5 5 6 6 7 7 7 7 7 8 9 8 9 9 10 11 12 13 13 13 14 14 15 17 16 14 14 13 12 11 10 9 10 11 10 9 10 10 11 13 13 23 35 33 30 31 24 16 13 10 9 11 10 9 10 10 9 9 10 10 10 11 13 12 12
4 4 4 4 4 5 5 5 5 5 5 5 5 5 5 5 5 5 6 6 5 5 6 5 6 6 6 7 7 7 8 8 8 9 9 9 9 10 11 12 13 13 14 14 15 17 19 16 14 15 15 13 13 13 15 16 16 14 13 13 13 15 17 18 23 21 17 28 33 16 10 19 15 10 12 12 11 12 11 10 11 10 10 11 13 14 13 12
3 4 4 4 5 4 5 5 5 5 5 5 5 5 5 5 5 6 6 6 6 6 6 6 6 6 7 7 8 8 8 8 9 9 9 10 10 10 11 11 12 13 13 15 16 18 20 17 14 16 16 15 17 18 19 22 20 17 16 16 16 18 19 20 19 14 17 29 28 13 14 20 15 12 14 14 13 14 13 13 14 13 13 15 16 16 14 12
4 4 4 5 5 4 5 5 5 5 5 5 6 5 5 6 6 6 6 6 7 7 7 7 7 7 8 8 8 9 9 9 10 9 10 10 11 11 12 12 12 13 13 16 18 19 23 21 18 19 18 16 17 19 20 23 21 17 16 16 17 20 21 21 18 15 22 27 21 16 19 18 14 15 15 16 18 17 17 17 16 16 16 16 17 16 14 14
4 4 4 4 4 4 5 5 5 6 6 6 6 6 6 7 6 7 7 7 7 7 8 8 8 8 8 8 9 9 9 10 10 10 10 11 11 12 13 12 13 14 14 16 18 20 24 25 22 23 24 18 16 18 21 23 24 21 17 15 17 19 19 19 17 16 20 23 19 18 20 17 16 17 18 21 22 20 20 20 19 19 18 18 18 17 16 19
3 4 4 4 4 5 5 5 6 6 6 6 6 6 7 7 7 7 7 7 8 7 8 8 8 8 8 8 9 9 9 9 10 10 10 11 12 12 14 13 13 15 14 16 19 20 24 27 25 30 35 25 18 22 24 24 28 25 17 14 14 16 17 17 17 17 18 19 19 19 20 18 18 20 22 23 23 23 24 23 23 23 23 23 23 23 24 24
4 4 4 5 5 5 6 6 6 6 6 7 6 6 7 6 7 7 7 7 8 7 8 8 7 8 8 8 9 9 9 9 9 9 10 10 11 11 13 14 13 15 15 16 20 20 23 28 31 40 46 33 25 30 28 30 37 29 15 14 16 17 20 20 18 17 17 18 20 20 19 19 21 24 25 24 25 28 27 26 25 25 25 28 29 30 29 24
Wind_Speed
6 6 5 4 3 3 3 4 5 5 5 5 5 6 6 5 6 7 6 3 2 3 3 3 3 3 2 3 3 3 3 2 3 3 3 4 5 5 5 5 4 4 6 6 7 7 7 7 6 6 7 9 10 11 12 13 14 15 14 14 14 14 12 11 10 9 9 9 11 13 15 15 14 11 11 11 12 14 16 17 18 18 19 18 17 15 13 12
7 6 5 5 4 4 3 4 4 4 3 2 1 2 3 3 4 4 5 5 5 4 5 4 4 4 4 4 4 4 4 4 4 4 4 4 5 5 6 5 5 6 6 7 7 7 7 6 6 6 7 9 11 12 12 12 13 14 14 14 13 13 12 12 11 9 8 7 8 10 12 13 13 12 12 13 13 14 15 17 17 18 17 16 14 12 11 11
7 6 6 5 5 4 4 4 4 4 4 3 2 2 1 1 1 0 1 2 3 4 4 4 4 4 5 5 5 5 4 5 5 5 4 4 4 5 5 6 6 7 7 8 8 7 7 6 7 8 8 9 11 13 13 12 12 13 13 12 12 11 11 11 12 11 9 8 8 8 10 11 11 12 13 14 15 15 15 16 16 15 14 13 13 12 12 12
7 6 6 5 4 3 3 3 3 3 3 3 3 3 3 3 3 2 2 2 3 3 3 4 3 4 4 5 5 5 4 5 5 5 4 3 5 5 6 6 7 7 8 8 8 8 7 7 8 9 9 10 12 13 14 13 12 12 11 11 10 10 9 10 11 11 10 9 8 8 10 11 13 14 15 16 16 16 16 16 15 14 14 14 13 13 13 14
6 5 4 3 1 1 2 2 2 3 3 3 3 3 3 3 2 2 2 3 4 4 4 4 4 3 4 5 5 5 5 5 5 5 5 6 6 6 7 7 7 7 8 8 9 9 8 8 8 9 10 10 12 14 15 14 13 12 11 11 10 9 8 8 9 10 11 10 9 10 11 13 14 15 16 16 17 17 16 16 15 15 15 14 14 14 14 13
5 4 2 1 0 1 2 3 3 3 3 4 4 3 3 2 2 2 3 4 5 5 6 6 5 5 5 5 5 5 6 6 6 6 8 8 7 7 7 8 8 7 8 9 9 9 9 8 8 9 10 11 12 14 15 15 15 13 12 11 10 9 8 8 8 9 10 10 10 11 12 13 14 15 16 17 17 17 17 17 16 16 16 15 15 14 12 10
4 3 1 0 1 2 2 2 2 3 3 4 4 3 3 2 2 3 4 5 5 5 6 7 6 6 6 6 5 5 6 6 7 7 7 8 7 8 8 9 8 8 8 9 9 10 9 9 9 9 10 11 13 14 15 16 16 14 13 12 11 10 10 10 10 11 11 10 10 10 11 12 14 15 16 17 17 17 17 17 16 16 16 15 14 12 10 8
2 1 1 2 3 3 3 3 3 3 3 4 4 4 4 4 5 5 5 5 5 5 5 6 6 6 6 6 6 6 6 6 6 6 7 8 9 9 9 9 8 8 8 9 9 10 10 10 10 10 11 13 14 15 16 17 17 16 15 14 12 12 12 12 11 11 10 10 10 11 12 13 14 15 16 16 16 16 16 15 15 14 14 13 11 10 8 7
0 1 2 2 3 3 3 3 3 3 4 4 5 5 5 6 6 6 5 5 4 4 4 4 4 4 5 6 6 6 6 6 7 8 8 8 8 8 8 8 8 8 9 9 10 10 10 10 10 11 12 13 14 15 16 17 17 17 16 15 14 13 13 13 12 10 10 10 11 12 13 13 13 14 15 15 14 13 13 13 13 13 12 10 9 8 7 5
1 2 3 3 3 3 4 4 4 4 4 5 5 6 6 6 6 5 5 4 4 3 3 3 2 3 3 4 5 5 6 7 7 8 8 7 7 7 6 6 7 7 8 9 9 9 9 9 10 11 11 13 14 14 14 15 15 16 16 15 15 14 14 14 12 12 11 11 12 12 13 12 11 13 13 12 12 12 12 13 12 11 10 9 7 6 5 4
3 3 3 3 3 4 4 5 5 5 5 6 6 6 6 5 4 4 4 4 4 4 3 3 2 2 2 2 3 4 5 6 7 7 7 6 6 6 6 5 5 6 7 7 7 8 8 9 10 11 11 13 14 14 14 14 14 14 14 15 16 16 15 15 14 13 12 11 11 11 12 12 11 11 11 11 11 12 12 11 10 10 9 7 6 5 3 2
4 4 4 4 4 5 6 6 6 6 6 7 7 6 5 4 3 3 3 3 3 3 3 3 3 2 2 2 3 4 5 6 7 8 7 7 7 6 6 6 6 6 6 6 6 7 8 9 10 11 11 12 13 14 14 15 14 12 11 13 15 16 16 16 15 13 11 10 10 10 11 11 11 11 12 11 11 11 10 10 10 9 8 7 5 4 3 2
4 5 5 5 5 6 6 5 5 6 6 6 6 5 4 3 2 2 2 2 2 2 2 3 3 2 2 3 4 5 6 6 7 7 7 7 7 7 6 6 6 5 5 5 5 7 8 9 10 11 12 13 13 13 13 13 13 12 11 12 14 15 15 15 14 13 12 11 11 10 10 10 11 11 11 10 10 10 10 9 10 9 7 6 5 4 3 3
4 4 5 4 3 3 4 5 5 5 5 4 4 3 3 3 2 1 0 1 1 2 2 2 2 2 2 4 6 7 7 6 5 5 6 6 6 6 6 6 5 5 5 5 5 6 8 10 10 11 13 14 14 14 13 13 12 12 13 13 13 14 15 15 15 13 12 11 10 10 11 11 11 10 9 10 11 11 10 10 10 9 7 5 4 4 4 4
1 1 1 1 1 3 4 5 5 6 5 4 3 2 2 2 1 0 1 2 3 3 3 3 2 3 4 6 7 7 6 5 4 5 5 5 4 4 4 4 4 4 4 4 5 5 7 10 11 12 13 14 14 15 15 13 12 14 13 12 12 14 14 14 14 14 12 10 10 10 10 10 9 10 11 12 12 12 12 12 10 8 6 5 5 5 4 4
3 3 2 1 2 3 4 5 6 6 6 4 2 2 2 2 0 1 2 3 4 4 4 4 3 3 4 6 7 6 5 5 6 6 5 5 4 3 2 2 2 3 3 3 4 5 7 8 10 11 12 13 13 14 14 13 13 15 15 12 12 13 13 13 13 13 12 11 10 10 10 9 10 11 12 13 13 13 13 12 10 8 6 6 5 5 5 5
4 3 2 2 2 3 3 4 5 7 7 6 4 3 3 2 1 1 2 3 4 5 6 5 4 3 3 4 5 5 5 5 5 5 5 5 5 4 4 3 2 2 2 2 3 4 6 7 9 10 11 11 11 12 12 13 15 16 17 15 13 13 13 13 13 13 13 11 10 11 11 10 12 13 13 13 14 14 13 12 10 8 7 7 6 6 6 6
4 2 2 3 4 4 3 3 5 6 8 8 7 5 4 3 3 3 3 4 5 5 6 6 4 2 2 2 3 3 4 3 3 4 5 5 5 5 5 4 3 3 3 3 3 4 5 7 8 9 10 10 11 13 13 14 14 15 16 17 16 14 14 14 13 12 12 12 11 11 12 12 13 13 14 14 14 14 13 11 11 9 8 8 8 8 7 8
2 2 4 5 6 4 2 2 5 6 8 9 7 6 4 3 3 3 5 6 5 4 4 5 4 2 2 2 2 2 3 3 3 4 5 5 5 6 6 5 4 3 3 3 4 4 5 7 8 9 10 11 13 14 14 14 13 12 13 16 16 16 15 15 14 12 11 12 12 12 13 14 13 13 13 13 13 14 12 11 12 11 9 9 10 10 10 11
2 3 4 6 7 6 3 3 4 5 7 8 8 6 4 3 3 3 5 6 5 4 5 5 4 4 3 3 3 3 3 3 3 4 6 6 6 6 7 6 5 5 4 4 4 5 5 5 8 10 9 10 13 14 14 12 10 9 9 11 14 14 14 14 14 13 12 12 13 13 14 14 14 13 12 12 13 12 11 11 12 12 12 11 12 13 13 13
1 2 4 5 6 6 4 4 5 6 7 7 7 6 3 3 4 4 4 4 5 5 5 5 5 5 5 4 4 4 4 5 5 6 7 7 6 7 6 6 5 5 5 4 4 5 5 5 7 8 6 6 9 11 11 8 6 5 5 6 8 9 11 12 13 13 13 13 14 14 14 14 13 13 13 13 11 10 11 10 11 13 14 14 14 14 15 16
1 1 3 4 5 6 5 4 5 6 7 7 7 5 3 3 4 4 3 3 4 5 5 5 6 7 6 6 6 5 5 6 7 7 7 8 7 6 6 5 5 5 5 5 4 4 4 6 5 5 4 4 5 6 6 5 4 4 4 4 5 7 8 10 11 12 13 14 14 14 14 13 13 13 14 15 12 11 12 12 13 15 16 16 17 17 18 18
2 2 2 4 4 5 5 4 5 6 7 7 7 6 4 3 2 3 4 4 4 5 6 6 7 8 8 8 7 6 6 7 7 7 7 7 6 6 5 6 6 4 4 5 3 2 3 4 4 4 3 2 3 3 3 3 4 5 6 7 8 9 9 9 10 11 11 12 12 13 13 14 15 15 16 16 16 16 16 15 16 17 17 18 20 21 21 21
3 2 2 4 4 4 5 4 4 5 6 7 7 6 4 3 1 0 3 4 5 7 6 6 7 8 9 8 7 6 6 7 7 6 7 6 6 5 5 5 6 5 5 4 2 2 3 4 4 3 3 3 3 3 4 5 6 8 9 10 10 9 8 8 8 8 9 10 11 12 13 15 16 17 18 18 20 21 20 19 19 19 19 20 22 24 23 23
3 3 4 5 5 5 5 4 4 5 6 7 7 7 5 4 4 3 3 3 4 7 8 7 8 8 8 7 6 5 5 6 6 6 6 6 5 6 6 6 6 6 5 4 4 3 3 5 4 3 3 2 3 4 5 5 8 10 10 10 9 7 5 5 5 7 9 9 10 10 8 9 12 14 15 18 22 22 21 22 21 19 20 21 23 23 23 25
5 5 5 6 6 6 6 5 5 5 6 7 7 7 6 6 6 6 5 5 5 8 9 8 8 8 7 6 6 6 5 6 6 6 7 6 6 7 6 5 5 4 5 4 3 2 2 4 4 3 2 1 1 2 3 5 7 8 8 9 8 5 4 4 6 7 8 8 10 10 5 8 17 18 14 17 22 21 21 23 22 19 20 22 22 22 23 24
8 8 8 7 7 7 6 5 6 6 7 7 8 8 7 7 7 8 6 5 5 8 9 8 8 7 7 6 6 7 6 6 7 7 7 7 6 6 5 5 4 4 4 4 3 2 3 3 3 2 1 1 1 1 2 4 5 6 7 7 7 6 5 6 7 8 10 12 13 14 11 11 19 22 14 16 20 20 22 23 21 19 20 21 22 22 23 24
9 8 7 6 6 6 5 5 6 7 8 8 8 8 7 6 5 7 5 3 4 7 7 8 7 6 7 8 8 8 7 7 7 7 7 7 6 6 5 5 4 4 4 5 4 4 4 4 3 2 1 0 1 2 2 3 4 5 6 6 6 7 7 9 10 10 12 12 13 17 14 9 16 24 19 17 21 21 22 21 19 20 20 21 22 22 23 24
6 4 3 3 4 5 5 6 7 8 9 8 8 6 5 3 4 5 3 0 3 5 6 7 7 7 8 9 9 8 8 7 7 6 6 6 6 7 6 5 4 3 4 5 4 4 5 4 4 3 3 3 4 2 3 3 3 4 4 5 7 7 9 10 10 12 10 9 15 19 15 8 14 27 26 21 23 22 20 19 18 20 20 20 21 21 23 24
1 1 1 2 3 4 6 7 8 8 8 6 5 5 3 4 4 2 1 2 4 4 5 7 6 7 9 9 9 9 8 7 7 6 6 6 6 7 5 4 3 2 3 4 2 4 5 5 5 4 4 4 4 3 3 3 3 4 4 5 7 7 9 9 10 11 6 6 14 17 16 11 9 24 27 19 19 19 17 19 19 20 20 20 21 21 23 24
2 3 3 4 4 5 5 6 6 5 5 4 3 3 4 4 3 2 1 2 4 3 4 6 6 8 9 9 9 9 8 8 8 7 7 7 6 6 5 3 2 2 2 1 3 5 5 5 5 5 4 4 3 3 4 4 4 4 4 5 7 6 6 7 7 6 2 5 10 10 12 13 12 22 22 13 15 19 20 21 20 21 22 21 22 23 24 26
4 4 3 3 3 3 3 3 2 2 3 3 3 4 5 3 2 2 2 3 3 2 3 4 5 8 8 8 9 9 8 8 8 8 8 7 7 6 5 3 2 2 2 3 5 5 6 6 6 5 4 3 3 4 4 5 5 5 5 5 5 2 3 4 3 2 5 7 8 7 6 12 24 33 28 18 20 23 24 24 23 24 23 22 23 25 26 27
3 2 2 1 1 1 1 2 2 2 3 4 4 5 4 1 1 2 2 2 2 2 3 4 6 7 8 8 9 9 9 9 9 8 8 8 7 7 5 3 3 2 3 4 6 6 5 5 6 6 5 4 4 4 4 5 4 5 5 4 4 1 3 3 4 2 6 8 8 10 7 12 27 32 25 17 16 18 20 22 23 25 23 22 24 26 27 27
2 1 1 0 0 1 2 2 3 4 4 4 5 4 2 2 1 1 0 1 1 2 2 4 6 7 8 9 9 9 9 9 10 8 8 8 7 6 5 4 3 2 3 4 6 5 5 5 6 7 7 6 6 5 5 6 6 6 6 5 6 5 1 4 4 3 5 5 6 10 8 11 19 23 22 18 20 24 25 25 26 27 24 24 27 27 27 27
1 1 0 1 1 2 2 3 4 5 5 4 4 3 2 2 2 1 1 2 2 3 3 5 5 7 8 9 9 10 9 9 10 9 8 8 6 6 5 4 4 3 2 3 5 5 6 8 8 9 9 8 8 8 8 8 7 8 8 7 8 8 6 7 7 8 7 5 7 11 14 24 31 36 35 30 30 30 27 27 27 25 25 27 29 29 28 30
1 1 2 2 2 1 1 2 4 5 4 3 2 2 2 1 2 2 2 2 3 4 5 5 6 7 8 9 9 9 9 9 9 8 8 8 6 6 6 5 5 3 2 4 5 5 6 7 8 9 10 10 10 11 11 10 9 9 10 11 11 11 11 9 8 9 5 3 8 10 19 35 38 37 36 27 24 23 21 24 25 22 26 29 30 30 30 33
2 2 2 2 2 1 0 2 3 4 4 3 1 1 2 3 3 3 3 4 4 5 6 7 7 7 8 9 9 9 9 9 9 8 8 8 7 6 6 6 5 4 4 5 6 6 7 10 11 11 12 13 12 12 13 13 13 14 14 13 12 11 10 8 5 4 2 2 8 10 22 35 30 27 33 27 20 19 19 22 23 23 27 30 31 31 31 34
2 2 1 2 2 2 2 1 3 3 4 3 1 2 4 4 4 4 4 5 5 6 7 7 7 7 8 8 9 9 9 9 9 9 8 8 7 7 7 6 6 6 6 6 6 7 9 11 12 11 12 13 14 14 15 16 15 16 16 16 14 10 8 8 3 3 3 2 5 8 17 34 36 33 39 34 25 25 24 23 23 25 29 31 32 32 32 35
2 0 1 1 2 2 2 2 3 3 4 4 3 4 5 4 4 4 5 6 6 6 7 7 7 8 8 9 9 9 9 9 9 9 9 8 8 8 8 7 6 6 7 8 8 10 10 9 9 11 12 12 14 16 16 17 15 15 17 18 18 15 12 12 7 5 4 2 6 6 6 28 40 32 31 33 30 30 26 22 23 27 30 31 33 34 34 36
2 0 1 2 2 0 1 3 4 4 5 5 4 4 5 5 5 5 5 6 6 6 6 7 8 8 9 9 10 10 10 10 9 9 9 9 10 9 7 6 7 8 9 9 10 11 12 10 10 14 15 14 15 16 17 18 17 18 19 18 19 17 14 13 12 15 11 3 3 1 4 33 45 32 30 35 34 33 28 26 30 31 33 35 34 35 37 38
2 2 2 3 3 2 3 4 5 6 6 6 5 5 6 6 5 6 5 5 6 6 6 8 8 9 9 10 10 10 11 10 9 9 10 10 10 9 7 8 10 10 11 12 12 12 12 13 15 19 20 20 20 20 21 21 20 21 22 21 21 20 16 11 8 16 18 11 9 3 8 40 52 40 41 42 38 38 36 34 36 36 38 41 38 38 39 39
4 4 5 5 5 5 6 5 6 7 7 6 6 6 7 7 6 6 5 5 6 6 7 8 8 9 9 10 10 10 11 10 9 9 10 10 10 10 10 10 11 11 13 14 14 14 14 15 19 23 23 21 21 22 22 22 22 24 23 23 22 21 21 15 7 12 15 16 20 9 8 41 57 46 45 46 44 46 45 44 45 44 45 46 43 40 37 36
7 7 7 7 7 7 7 6 7 7 7 6 7 7 7 7 7 7 5 5 5 6 7 7 8 9 9 10 9 10 11 10 9 10 10 10 10 11 11 12 12 13 14 14 13 14 13 13 18 23 24 23 22 22 21 20 20 21 22 22 21 21 24 22 20 21 15 17 23 8 6 40 59 50 49 52 52 54 52 51 51 49 48 47 42 37 33 34
9 8 8 8 8 8 8 7 6 6 7 7 7 7 7 6 6 6 6 5 5 6 7 7 7 8 9 9 9 10 10 9 9 10 11 11 11 11 11 12 12 13 13 14 14 15 14 14 16 17 18 18 17 14 15 17 18 22 25 24 23 23 23 24 28 26 20 26 29 11 12 46 59 52 54 56 55 56 52 49 50 48 46 43 37 33 32 36
8 8 8 8 7 7 8 9 6 5 6 7 7 7 6 6 5 5 5 6 5 5 6 7 7 8 9 9 10 10 10 10 10 10 11 12 12 12 12 12 13 14 15 15 17 18 18 19 20 15 9 9 11 13 18 24 26 29 32 30 28 27 24 26 26 21 20 27 26 20 31 59 64 55 55 53 49 49 45 42 44 43 39 37 34 32 34 37
7 7 8 9 8 7 6 8 8 6 6 6 7 6 6 5 5 5 5 5 5 5 6 7 8 8 9 9 10 10 11 11 11 11 12 13 13 13 13 14 15 15 16 17 18 20 22 24 25 23 21 22 25 27 28 30 31 34 36 34 33 31 29 29 26 28 33 30 28 39 53 62 63 57 50 45 40 39 38 37 38 37 35 35 34 34 37 38
6 6 7 7 8 7 6 8 9 8 6 6 6 6 5 5 4 4 4 5 6 6 6 7 8 8 9 10 11 11 11 11 11 12 12 13 14 14 14 15 16 16 17 17 18 19 23 27 27 27 30 31 32 31 30 30 34 37 38 38 37 35 36 36 34 41 44 29 31 52 55 50 57 56 47 41 37 36 38 37 36 36 36 35 35 36 39 38
6 6 6 5 6 7 7 8 8 8 7 6 5 5 5 5 5 4 4 4 5 6 6 7 8 8 9 10 11 12 12 12 13 13 13 14 15 15 16 16 16 17 17 17 18 19 23 28 28 29 32 32 31 32 32 32 35 38 38 39 38 35 37 40 43 48 45 35 40 56 53 49 54 51 42 39 36 36 39 38 37 38 36 34 35 38 40 39
6 6 6 7 8 8 7 7 7 7 7 6 5 4 4 4 5 5 4 4 5 6 7 7 8 9 10 10 11 12 13 14 14 15 15 16 16 16 18 17 16 17 18 18 20 19 21 26 28 29 32 33 33 33 33 34 35 38 39 39 39 39 40 42 44 44 43 46 51 53 50 51 49 42 40 39 36 38 39 37 37 37 36 36 37 40 41 40
8 8 7 7 8 8 8 7 7 7 6 6 5 4 4 3 4 4 5 5 5 6 7 7 8 9 10 11 11 13 14 15 15 16 17 17 17 17 18 18 18 19 20 21 22 21 22 26 28 29 34 36 34 32 33 33 33 38 44 43 40 39 37 35 34 35 37 43 44 42 45 50 44 39 40 39 36 36 35 35 37 37 36 38 39 41 42 42
8 8 8 7 6 8 8 7 6 6 6 6 5 4 4 3 4 4 4 5 5 6 7 7 8 10 10 11 12 13 15 15 16 17 18 19 19 19 19 20 20 21 22 23 24 25 25 27 30 28 31 37 35 31 31 32 34 43 44 33 24 24 25 26 28 32 33 36 37 38 42 45 44 41 39 37 34 34 35 37 39 38 37 38 39 41 42 42
6 6 7 8 7 6 7 6 6 5 5 5 4 3 3 3 3 3 4 5 5 6 7 7 8 10 11 12 13 14 15 16 17 18 19 20 21 20 20 21 21 22 23 23 24 27 27 29 30 25 25 34 34 28 31 34 33 34 29 20 21 28 32 32 30 29 30 32 35 37 40 43 43 38 36 35 35 36 38 38 39 39 39 38 38 38 39 41
Wind_Direction
134 138 135 133 122 109 98 98 113 133 156 173 181 175 178 180 159 149 150 166 225 271 285 287 286 276 271 272 267 271 274 274 276 270 265 266 263 258 253 250 252 248 240 240 237 235 234 237 234 225 224 222 221 220 218 218 223 227 229 231 234 236 236 234 234 243 252 254 246 241 243 241 235 237 246 253 259 264 266 264 263 264 265 266 267 269 271 268
135 135 127 120 111 102 92 82 76 78 84 100 136 177 198 211 203 193 194 215 245 267 275 281 281 273 271 264 257 256 258 263 266 268 265 260 258 256 253 253 260 261 254 248 243 241 239 236 233 228 230 227 223 219 217 221 226 229 234 238 243 247 245 242 241 247 254 253 248 244 242 240 241 250 258 264 269 271 267 263 262 263 262 261 261 261 258 254
130 124 118 112 103 94 81 69 58 54 50 47 44 36 29 16 346 275 239 248 262 267 268 274 268 261 262 258 255 252 250 252 254 258 257 260 266 265 264 261 263 267 265 259 251 250 245 238 231 225 227 228 227 222 220 224 226 229 236 241 247 254 255 250 246 246 244 238 234 238 241 246 256 265 270 274 276 275 271 266 264 260 257 255 254 251 246 245
125 120 113 105 98 87 66 54 38 28 20 12 7 6 9 7 7 6 342 307 294 283 274 271 261 251 252 256 257 256 260 261 263 258 244 269 291 285 281 273 267 264 264 262 256 252 245 238 231 226 225 225 226 225 224 225 227 231 239 243 246 255 259 251 245 234 225 223 228 239 252 262 270 275 276 278 278 277 274 271 266 259 256 255 253 251 249 249
123 117 111 105 86 38 14 5 352 341 332 328 327 338 346 347 346 325 299 290 286 283 280 277 272 260 257 264 266 271 277 273 276 266 254 283 298 292 286 279 272 263 259 257 252 248 241 234 231 229 228 224 222 225 227 225 228 234 239 242 246 256 257 249 241 228 221 229 241 251 260 267 272 275 277 278 278 277 276 273 269 264 262 261 259 257 257 258
133 132 136 157 355 352 345 341 335 330 327 326 330 338 338 324 297 272 271 273 276 279 279 279 280 279 277 278 278 280 278 272 279 279 276 286 294 291 286 280 274 265 258 253 250 248 241 234 230 231 233 227 221 224 226 225 228 234 239 243 247 252 248 240 241 241 241 244 248 254 259 263 268 272 274 276 275 274 274 272 269 268 267 265 263 262 262 263
152 163 184 236 348 351 348 350 343 337 337 336 340 343 337 321 299 289 290 288 284 280 276 277 280 284 284 282 281 277 272 273 278 280 280 283 287 287 283 278 275 270 262 253 248 247 243 236 229 229 233 230 224 224 226 226 230 234 239 244 245 245 238 235 244 250 250 247 250 256 261 264 268 271 272 271 271 270 270 269 268 267 266 265 264 264 265 268
158 197 292 334 348 345 345 346 339 340 342 342 340 337 333 324 318 320 319 311 298 288 283 281 281 283 283 281 280 277 277 282 284 282 282 282 282 279 274 270 268 266 263 255 246 241 239 235 230 228 231 232 229 227 227 229 231 235 240 245 245 243 237 237 244 248 246 248 255 259 262 267 269 269 267 266 268 268 267 266 264 262 261 262 262 264 268 274
60 337 337 342 342 337 333 329 324 323 329 332 330 328 324 320 325 333 333 324 315 313 310 300 290 283 279 277 277 282 287 289 291 289 288 286 281 274 268 265 262 261 260 256 250 243 238 234 232 231 232 236 237 235 233 233 236 238 241 244 244 242 239 239 238 239 242 246 252 259 262 265 265 264 262 262 263 263 262 260 258 256 255 256 257 262 268 273
339 334 336 337 334 325 317 313 310 310 312 315 317 318 316 318 332 343 341 336 335 341 344 339 322 297 288 287 289 295 295 293 294 294 296 294 286 281 273 267 263 262 262 261 258 255 248 239 234 233 235 239 240 241 239 238 241 244 245 243 238 237 238 234 231 231 235 242 252 257 258 257 257 258 258 259 259 259 257 253 251 249 247 247 248 250 251 252
323 330 330 328 325 315 309 308 307 307 305 306 309 311 311 321 343 350 345 349 351 351 356 356 350 342 328 316 318 315 304 299 299 302 306 302 300 302 297 289 282 274 271 266 262 260 255 247 243 238 236 239 240 241 241 241 243 247 250 244 232 230 231 229 229 231 232 240 249 250 252 254 254 256 259 262 263 261 255 250 248 245 243 240 236 232 229 230
326 324 316 312 311 307 306 308 308 306 305 306 306 306 309 323 348 346 345 358 357 350 352 352 357 359 350 354 355 331 316 311 306 308 310 308 310 313 312 311 307 297 285 273 265 260 254 250 247 240 236 240 242 242 243 242 242 246 246 239 231 227 227 230 230 229 230 237 242 246 253 256 257 265 270 271 266 261 255 250 246 243 238 233 228 226 224 226
315 305 298 302 306 309 316 323 322 317 314 310 308 309 313 324 336 334 347 8 1 359 359 353 351 343 330 351 355 332 316 312 308 308 308 309 312 313 315 315 310 301 289 278 267 258 254 250 247 242 239 243 245 243 244 241 238 237 232 229 232 228 225 229 230 229 232 237 239 245 253 256 263 272 275 275 268 261 256 247 240 234 226 218 214 209 205 200
296 288 292 303 317 335 351 356 352 345 335 323 314 316 318 316 317 323 38 57 35 28 18 5 359 345 322 328 336 331 320 316 313 310 313 318 319 319 318 316 311 299 287 277 263 255 253 251 249 246 243 245 247 245 243 237 228 223 222 226 236 233 228 229 230 231 234 235 237 248 258 263 269 272 275 278 272 264 254 241 232 224 212 201 197 192 191 187
284 269 295 339 19 31 23 17 12 6 356 343 328 327 329 313 302 102 98 65 45 37 31 20 7 348 333 329 331 331 331 338 343 341 341 336 326 318 311 310 308 296 285 273 262 252 249 249 247 245 244 244 245 244 241 233 222 219 220 228 234 233 232 231 231 234 233 233 239 252 265 271 271 272 278 277 269 259 247 234 226 217 205 197 196 191 190 196
113 113 108 81 41 32 26 23 21 17 11 6 4 5 359 332 283 127 85 60 49 39 28 15 354 329 326 336 341 345 356 5 2 356 351 344 332 325 321 314 307 297 284 269 258 253 249 247 245 243 242 242 241 243 240 228 219 220 224 234 236 233 233 229 231 234 233 238 245 248 260 273 274 276 277 269 259 249 236 225 218 215 212 206 204 205 207 215
108 103 87 34 359 356 11 22 25 26 26 33 47 49 46 45 74 86 67 59 47 34 27 23 11 338 328 351 358 1 4 5 0 353 349 347 341 337 340 342 342 335 313 282 254 252 251 247 246 245 243 240 236 234 228 218 220 226 229 236 240 237 236 232 233 235 236 242 246 247 259 273 278 278 270 258 249 237 223 217 217 221 219 211 212 219 227 238
99 74 33 10 351 341 350 14 26 31 33 41 54 60 65 65 62 65 62 52 37 25 21 27 28 4 1 16 8 3 358 353 357 352 345 340 333 336 339 337 346 349 327 298 267 255 250 248 248 250 248 241 235 231 225 226 236 242 242 244 245 241 237 236 236 237 237 238 244 256 269 278 280 276 263 251 239 225 217 220 225 231 228 219 221 230 242 253
83 42 29 24 11 5 7 23 30 32 33 39 48 55 58 58 64 65 56 46 35 28 31 38 47 47 41 13 348 352 348 345 358 358 346 332 326 330 330 329 337 341 321 287 277 269 256 250 241 239 244 237 233 232 232 242 256 262 260 254 250 247 244 240 234 233 235 235 247 263 271 277 276 269 259 245 230 221 227 237 236 239 242 235 234 241 250 259
65 29 26 30 25 24 39 42 33 34 33 33 38 45 48 50 62 57 47 38 22 28 49 48 49 48 35 16 352 337 335 337 346 356 347 332 324 322 324 329 331 328 319 295 277 264 248 247 234 226 234 234 229 229 233 249 264 269 263 252 251 251 247 240 231 231 237 243 255 265 271 276 272 261 250 234 226 229 242 251 248 248 251 249 248 250 256 263
59 20 15 26 28 28 40 43 35 34 31 28 28 32 32 37 55 54 44 29 11 21 47 42 34 27 18 12 355 335 331 325 333 349 343 329 319 319 322 325 325 319 314 304 280 255 233 233 230 218 219 222 220 224 233 249 264 264 257 253 256 251 243 239 235 238 248 257 264 269 273 274 264 255 242 228 229 240 250 257 259 259 259 259 260 261 264 268
279 350 4 15 20 23 29 31 30 28 25 21 15 13 18 31 49 48 30 8 4 21 39 39 27 13 1 354 345 340 335 330 336 344 334 321 312 314 316 315 322 322 314 306 284 259 233 215 210 203 199 201 207 221 233 242 262 274 273 275 277 264 252 247 248 253 260 268 273 273 272 266 255 252 242 234 238 244 252 260 263 266 269 269 268 267 268 274
282 287 337 355 2 12 12 12 12 12 14 9 1 358 360 9 34 44 23 1 6 25 30 27 17 6 357 346 339 338 336 336 337 334 327 320 316 317 317 320 326 322 313 307 284 269 239 199 195 207 210 224 240 251 260 267 283 289 287 290 289 282 269 258 262 267 268 275 279 275 270 258 248 249 245 241 243 246 253 264 267 270 274 274 269 266 270 277
296 283 299 326 335 342 347 352 350 352 357 352 349 347 331 325 296 24 8 8 30 34 20 8 4 356 351 345 339 335 334 339 337 334 331 327 331 330 322 329 331 325 317 312 322 309 244 201 197 217 225 247 270 282 287 289 294 293 293 294 294 294 283 270 273 278 281 283 282 285 282 267 255 253 253 248 246 249 255 264 269 270 272 271 268 269 273 277
297 285 286 300 308 313 319 328 329 331 337 334 336 332 309 286 254 251 314 332 13 19 5 357 356 349 350 351 348 342 336 341 342 337 332 331 338 334 328 334 333 336 337 329 341 325 235 201 199 197 206 243 268 275 279 285 290 292 294 293 296 307 298 281 282 287 292 289 287 298 297 280 269 259 256 252 249 251 256 263 267 267 267 267 269 273 274 274
293 287 283 286 288 292 297 306 310 311 319 321 319 316 299 280 260 254 285 288 299 345 351 351 353 354 360 3 0 358 343 339 342 334 331 336 341 334 334 340 336 342 341 332 341 323 234 205 196 168 150 207 272 277 281 281 282 284 284 286 293 298 289 280 286 291 292 289 291 296 277 272 283 278 266 254 251 254 257 261 264 263 263 266 271 275 274 273
294 289 281 278 275 274 280 291 297 301 308 307 304 303 290 278 260 252 281 301 296 322 340 347 353 0 7 6 4 6 356 343 343 338 335 336 335 333 338 345 341 338 329 316 318 297 240 200 167 111 67 47 358 283 277 270 271 277 279 277 279 288 284 271 276 280 281 284 288 284 270 269 282 284 275 254 253 258 258 259 263 260 261 266 272 275 275 274
296 290 280 272 262 260 266 276 286 293 297 296 296 296 284 272 253 249 274 341 316 314 335 348 354 0 6 5 6 8 2 350 345 340 338 332 328 335 346 347 333 333 332 307 283 252 216 178 142 120 99 82 253 242 255 267 272 279 278 265 262 280 282 273 273 271 276 285 280 272 268 261 274 280 282 270 262 260 257 257 260 259 260 265 271 275 277 277
301 293 280 260 248 254 262 270 281 286 290 292 289 284 273 248 233 245 246 296 303 309 333 347 354 1 4 6 9 7 358 352 348 339 338 335 333 343 350 340 319 330 336 307 272 218 191 164 151 163 181 210 230 234 261 278 282 281 275 256 255 272 279 275 267 263 271 278 270 270 264 247 273 279 279 277 269 260 257 258 260 261 261 264 270 275 277 278
329 321 295 268 261 263 268 275 280 283 285 282 273 263 235 196 206 220 188 271 286 294 327 343 353 359 1 3 6 4 354 356 356 349 349 347 345 352 356 346 331 338 331 305 237 192 180 168 176 188 192 211 231 245 256 268 279 285 287 266 262 274 276 270 259 261 275 269 268 272 258 235 270 283 279 278 271 262 258 264 266 264 263 266 273 278 279 280
320 303 290 278 274 270 272 275 274 274 267 251 240 219 186 180 198 192 168 278 281 279 317 341 356 357 358 359 0 360 357 360 1 358 357 354 354 358 0 356 350 353 331 243 196 193 183 180 193 203 208 218 241 254 250 261 265 275 295 278 266 273 273 263 255 251 232 260 275 273 249 225 233 271 283 282 267 265 268 272 271 268 265 267 276 284 284 283
305 295 289 282 275 268 266 257 243 235 215 202 190 176 172 175 219 246 250 272 285 306 329 349 356 355 356 357 358 358 359 2 2 0 358 356 359 359 354 332 300 285 253 211 202 203 195 197 204 206 220 230 245 256 254 267 274 282 292 275 256 292 325 276 255 232 231 257 270 252 240 235 244 266 284 281 266 269 274 275 271 269 268 267 278 288 288 284
304 299 296 282 257 243 220 181 161 161 165 166 167 169 174 173 239 269 264 269 298 326 345 356 354 352 357 359 1 1 359 1 1 360 359 356 355 354 351 332 304 277 263 234 210 208 209 219 225 225 238 247 251 263 260 264 285 294 284 259 240 278 33 282 268 286 267 267 257 241 252 261 260 274 288 283 274 275 275 278 278 276 271 267 278 289 291 287
315 316 288 238 183 147 151 146 134 140 148 152 163 180 220 261 259 273 57 28 9 1 345 351 351 352 358 1 3 2 0 1 359 358 357 353 352 348 343 336 328 304 271 232 213 220 229 242 248 241 246 256 258 266 266 266 278 276 263 256 255 247 219 254 248 243 270 296 273 244 249 260 263 280 291 290 292 289 286 288 286 280 272 268 278 290 296 297
342 335 58 94 93 109 128 138 139 143 144 149 170 204 273 278 236 177 83 46 34 20 356 353 353 356 2 3 3 2 1 1 356 355 352 344 343 340 336 338 333 326 274 228 231 248 251 256 261 254 255 260 261 265 271 278 281 271 269 279 277 270 266 262 261 265 277 319 288 246 250 264 273 286 289 288 291 291 290 288 281 278 274 272 280 292 301 304
86 83 82 80 70 83 129 154 154 154 151 156 193 252 275 241 163 138 83 53 39 25 13 8 2 1 3 2 3 3 2 0 355 352 347 340 336 331 332 334 326 321 284 256 258 262 260 264 264 259 260 261 263 271 274 278 279 276 282 289 287 286 284 272 273 282 286 302 276 249 261 275 284 291 289 289 297 296 289 284 280 278 277 279 286 293 302 306
128 111 92 79 49 18 281 181 168 169 168 170 237 281 208 155 128 112 81 56 41 31 22 13 6 4 2 1 3 4 1 358 354 349 344 342 337 327 325 320 313 310 295 281 272 266 272 279 277 270 267 265 270 278 280 279 278 278 283 287 286 289 290 279 278 307 332 269 264 247 264 277 281 285 289 296 305 304 298 288 282 282 285 289 291 294 301 307
147 128 101 80 46 359 311 227 181 179 175 176 181 135 142 134 114 96 71 51 40 31 25 18 11 7 3 1 2 3 1 355 352 351 347 344 339 330 323 312 304 298 289 286 285 281 284 290 288 281 274 272 274 277 281 283 282 281 279 278 278 276 275 275 276 303 299 286 278 252 261 273 269 270 288 299 298 300 304 292 284 292 296 294 292 292 298 305
183 278 345 69 53 352 296 213 172 163 162 165 159 138 129 116 102 86 64 49 39 31 25 19 15 11 6 4 3 2 359 354 351 351 347 345 341 330 320 309 300 293 288 285 283 287 291 290 289 289 285 281 279 278 281 286 287 283 275 271 272 268 264 266 252 246 254 247 290 283 264 278 277 277 292 302 303 304 302 290 293 304 304 299 293 289 294 303
206 278 14 78 70 12 210 170 154 147 150 149 139 129 119 105 93 78 64 52 40 34 27 20 18 15 8 6 4 360 357 353 350 349 344 342 341 334 322 308 300 297 293 289 285 288 288 279 277 286 287 283 284 286 288 290 288 281 275 271 271 268 264 266 257 254 255 222 263 305 274 280 286 294 300 304 313 312 304 295 299 305 307 307 301 292 295 302
167 125 103 99 96 127 147 153 157 148 137 126 120 119 108 96 84 74 66 52 42 37 29 23 18 15 9 7 4 359 357 351 348 348 342 339 339 335 324 311 304 300 294 292 290 288 285 279 277 282 284 284 289 291 290 289 286 280 277 275 275 272 263 262 259 253 250 239 241 225 276 281 286 294 299 305 314 312 307 303 301 304 308 311 308 301 300 301
138 122 117 116 117 130 139 147 146 133 124 120 120 114 100 88 77 72 65 50 44 35 29 25 18 14 9 6 2 357 356 351 346 346 341 339 336 327 320 312 304 299 296 294 291 287 285 284 281 284 287 289 290 289 287 287 285 281 278 276 277 273 261 251 244 256 251 244 252 242 260 282 288 294 299 307 312 309 309 308 305 306 308 310 311 307 303 299
128 122 123 126 126 130 135 134 125 120 122 122 118 108 96 88 77 67 61 52 43 32 28 23 16 13 7 4 2 357 355 350 343 342 340 339 334 324 318 313 306 302 298 295 292 290 289 285 285 290 295 293 289 287 285 286 284 281 281 281 278 276 272 264 258 265 262 247 253 240 241 279 287 295 301 307 309 307 310 310 308 308 308 310 312 306 301 297
127 127 130 131 132 132 125 112 106 119 127 118 108 101 94 88 79 66 57 50 39 30 26 17 12 10 4 2 359 356 355 348 340 339 337 335 333 326 318 313 309 304 299 296 292 291 288 283 284 294 305 305 299 294 292 293 292 288 287 286 280 278 279 272 264 263 263 260 257 234 253 277 287 297 302 307 308 308 312 312 310 311 311 312 310 302 298 295
130 136 135 131 130 128 121 112 106 116 123 113 103 98 92 86 79 68 54 45 37 28 21 14 9 4 1 359 355 353 352 344 337 335 334 332 329 326 321 314 309 304 301 297 293 291 287 280 279 279 279 283 285 291 299 300 298 292 290 288 285 282 277 274 270 257 255 263 252 233 261 281 291 300 304 309 312 313 318 318 315 315 314 310 304 298 296 295
135 141 137 131 123 118 123 122 118 117 117 110 103 97 92 87 78 68 58 44 32 24 16 10 6 360 358 356 351 349 346 342 337 332 331 330 325 323 320 314 309 305 301 297 294 293 288 284 284 279 269 271 282 291 297 297 292 289 290 289 286 284 280 274 264 254 259 263 260 262 270 282 295 305 310 315 319 320 321 319 315 313 308 303 300 297 296 296
140 140 137 132 124 125 131 123 116 117 118 114 107 98 93 90 80 66 59 44 29 22 14 6 3 359 356 354 350 346 343 341 337 331 329 327 324 322 318 314 310 304 301 298 294 292 288 288 290 287 284 287 292 295 295 293 290 290 290 289 286 284 281 272 263 268 271 263 268 281 281 282 293 305 313 318 324 323 319 317 314 310 306 302 300 298 296 295
143 143 143 136 129 132 132 123 117 118 119 116 113 109 98 87 77 62 51 41 29 23 13 5 3 359 355 352 348 344 340 338 336 333 331 326 324 321 317 314 309 304 302 298 292 290 286 288 292 292 292 295 295 297 297 293 292 293 291 291 289 285 280 275 275 281 277 260 269 287 290 285 292 305 316 321 325 321 315 314 310 307 306 303 300 297 295 296
136 137 137 133 131 130 128 124 122 121 118 115 115 112 102 89 73 58 46 35 26 20 13 6 3 358 354 351 346 342 339 335 333 332 329 325 324 320 316 314 309 305 302 297 293 290 284 286 292 294 295 297 297 299 300 297 297 297 295 295 293 289 285 283 285 289 280 269 277 289 290 290 298 312 320 321 321 315 311 309 305 303 303 301 298 296 295 299
128 128 127 128 131 130 127 125 124 123 118 114 111 100 92 86 67 52 41 29 20 15 10 4 1 356 351 348 345 340 337 335 331 328 325 323 322 318 314 312 309 304 301 297 293 290 284 284 290 294 295 297 299 300 300 300 300 298 298 300 298 293 291 287 288 292 284 279 288 294 289 293 308 321 320 317 315 312 309 307 305 304 302 300 298 297 298 301
129 131 129 129 134 132 127 125 124 121 113 107 103 92 83 70 55 46 29 20 14 7 2 358 355 352 347 343 341 336 334 335 331 327 323 321 318 315 309 306 305 300 298 296 292 290 286 283 289 294 292 293 298 300 300 300 298 297 299 303 302 296 295 296 296 297 293 291 296 294 288 297 314 321 316 313 313 312 310 309 308 307 306 304 302 301 301 301
133 136 128 127 133 132 128 126 122 118 109 101 93 83 71 51 41 30 12 9 3 357 355 348 345 345 342 339 337 334 331 331 330 327 324 321 318 314 307 302 300 297 295 293 289 288 287 285 288 289 286 290 295 295 298 303 303 301 303 310 315 312 308 304 301 300 299 297 294 291 294 305 315 315 311 311 312 312 312 311 310 311 313 312 309 306 302 300